カタログに戻る

DELTA 1 DEB

運用中HEO
NORAD 14620·DEBRIS·🇺🇸 United States

打ち上げ Aug 3, 1981 から Vandenberg Space Force Base

Loading…

次のパス (今後24時間)

TLE

最新Source: Space-Track

元期: Sep 11, 2026, 21:21 UTC

1 14620U 81070J   26254.88968886  .00000905  00000-0  31502-2 0  9996
2 14620  90.7433  39.0520 5969708 116.3068 315.6195  3.86399264524370

AllMySatでDELTA 1 DEBをリアルタイム追跡

Download on the App Store